When you browse on this site, cookies collect data to enhance your experience and personalize the content and advertising you see.
Visit our Privacy Policy to learn more. By continuing to use the site, you agree to this use of cookies and data.
  • In Lithuania
  • List of Countries
  • For 7 days
  • Water Temperature
  • Satellite Maps
  • Weather Map
  • Weather Widgets
  • user-avatar
    Login

    Hourly Weather Rybackiy

    Today, 26 March, Tuesday

    Time Temperature Precipitation Wind Pressure Humidity
    00:00 +6°C° 0 mm 2 mps 761 mmHg 71%
    01:00 +5°C° 0 mm 2 mps 761 mmHg 73%
    02:00 +5°C° 0 mm 2 mps 761 mmHg 74%
    03:00 +4°C° 0 mm 3 mps 761 mmHg 75%
    04:00 +4°C° 0 mm 3 mps 761 mmHg 77%
    05:00 +4°C° 0 mm 2 mps 761 mmHg 79%
    06:00 +4°C° 0 mm 2 mps 760 mmHg 81%
    07:00 +4°C° 0 mm 3 mps 761 mmHg 75%
    08:00 +7°C° 0 mm 3 mps 761 mmHg 70%
    09:00 +7°C° 0 mm 4 mps 761 mmHg 64%
    10:00 +8°C° 0 mm 4 mps 761 mmHg 57%
    11:00 +11°C° 0 mm 4 mps 760 mmHg 51%
    12:00 +12°C° 0 mm 4 mps 760 mmHg 44%
    13:00 +13°C° 0 mm 4 mps 760 mmHg 42%
    14:00 +14°C° 0 mm 3 mps 760 mmHg 40%
    15:00 +14°C° 0 mm 3 mps 760 mmHg 38%
    16:00 +14°C° 0 mm 3 mps 759 mmHg 41%
    17:00 +14°C° 0 mm 2 mps 759 mmHg 44%
    18:00 +14°C° 0 mm 1 mps 759 mmHg 47%
    19:00 +13°C° 0 mm 1 mps 759 mmHg 50%
    20:00 +12°C° 0 mm 1 mps 759 mmHg 52%
    21:00 +11°C° 0 mm 1 mps 759 mmHg 55%
    22:00 +10°C° 0 mm 1 mps 759 mmHg 56%
    23:00 +10°C° 0 mm 1 mps 759 mmHg 58%

    Tomorrow, 27 March, Wednesday

    Time Temperature Precipitation Wind Pressure Humidity
    00:00 +9°C° 0 mm 1 mps 759 mmHg 59%
    01:00 +9°C° 0 mm 1 mps 759 mmHg 61%
    02:00 +8°C° 0 mm 1 mps 759 mmHg 63%
    03:00 +8°C° 0 mm 1 mps 758 mmHg 65%
    04:00 +7°C° 0 mm 1 mps 758 mmHg 66%
    05:00 +7°C° 0 mm 1 mps 758 mmHg 68%
    06:00 +7°C° 0 mm 1 mps 758 mmHg 69%
    07:00 +8°C° 0 mm 1 mps 758 mmHg 66%
    08:00 +8°C° 0 mm 2 mps 758 mmHg 62%
    09:00 +9°C° 0 mm 2 mps 758 mmHg 59%
    10:00 +10°C° 0 mm 3 mps 759 mmHg 59%
    11:00 +11°C° 0 mm 4 mps 759 mmHg 60%
    12:00 +12°C° 0 mm 5 mps 759 mmHg 61%
    13:00 +10°C° 0.1 mm 5 mps 759 mmHg 64%
    14:00 +11°C° 0.1 mm 4 mps 759 mmHg 67%
    15:00 +10°C° 0.1 mm 4 mps 759 mmHg 70%
    16:00 +10°C° 0 mm 4 mps 759 mmHg 68%
    17:00 +10°C° 0 mm 3 mps 759 mmHg 66%
    18:00 +10°C° 0 mm 2 mps 759 mmHg 65%
    19:00 +9°C° 0.3 mm 3 mps 760 mmHg 68%
    20:00 +8°C° 0.3 mm 3 mps 760 mmHg 71%
    21:00 +7°C° 0.3 mm 3 mps 760 mmHg 74%
    22:00 +6°C° 0 mm 4 mps 760 mmHg 73%
    23:00 +5°C° 0 mm 5 mps 760 mmHg 72%

    Day after tomorrow, 28 March, Thursday

    Time Temperature Precipitation Wind Pressure Humidity
    00:00 +5°C° 0 mm 5 mps 760 mmHg 72%
    01:00 +3°C° 0 mm 5 mps 761 mmHg 72%
    02:00 +3°C° 0 mm 5 mps 761 mmHg 73%
    03:00 +2°C° 0 mm 5 mps 761 mmHg 73%
    04:00 +2°C° 0.1 mm 5 mps 761 mmHg 74%
    05:00 +2°C° 0.1 mm 5 mps 762 mmHg 75%
    06:00 +2°C° 0.1 mm 6 mps 762 mmHg 75%
    07:00 +2°C° 0 mm 6 mps 763 mmHg 74%
    08:00 +3°C° 0 mm 5 mps 763 mmHg 72%
    09:00 +3°C° 0 mm 5 mps 764 mmHg 71%
    10:00 +5°C° 0 mm 5 mps 764 mmHg 66%
    11:00 +5°C° 0 mm 4 mps 765 mmHg 61%
    12:00 +6°C° 0 mm 4 mps 765 mmHg 57%
    13:00 +7°C° 0 mm 4 mps 765 mmHg 52%
    14:00 +7°C° 0 mm 4 mps 765 mmHg 47%
    15:00 +7°C° 0 mm 4 mps 765 mmHg 42%
    16:00 +8°C° 0 mm 3 mps 766 mmHg 41%
    17:00 +8°C° 0 mm 3 mps 766 mmHg 40%
    18:00 +7°C° 0 mm 3 mps 766 mmHg 40%
    19:00 +7°C° 0 mm 3 mps 767 mmHg 43%
    20:00 +6°C° 0 mm 2 mps 767 mmHg 46%
    21:00 +5°C° 0 mm 2 mps 768 mmHg 49%
    22:00 +5°C° 0 mm 2 mps 768 mmHg 52%
    23:00 +4°C° 0 mm 2 mps 768 mmHg 55%

    29 March, Friday

    Time Temperature Precipitation Wind Pressure Humidity
    00:00 +4°C° 0 mm 2 mps 768 mmHg 58%
    01:00 +3°C° 0 mm 2 mps 768 mmHg 61%
    02:00 +3°C° 0 mm 2 mps 769 mmHg 63%
    03:00 +3°C° 0 mm 2 mps 769 mmHg 66%
    04:00 +2°C° 0 mm 2 mps 769 mmHg 67%
    05:00 +2°C° 0 mm 2 mps 769 mmHg 68%
    06:00 +2°C° 0 mm 1 mps 769 mmHg 69%
    07:00 +3°C° 0 mm 2 mps 769 mmHg 62%
    08:00 +4°C° 0 mm 2 mps 769 mmHg 56%
    09:00 +5°C° 0 mm 2 mps 769 mmHg 49%
    10:00 +5°C° 0 mm 3 mps 769 mmHg 45%
    11:00 +7°C° 0 mm 3 mps 769 mmHg 41%
    12:00 +7°C° 0 mm 4 mps 769 mmHg 36%
    13:00 +7°C° 0 mm 4 mps 768 mmHg 36%
    14:00 +8°C° 0 mm 4 mps 768 mmHg 36%
    15:00 +8°C° 0 mm 5 mps 767 mmHg 36%
    16:00 +7°C° 0 mm 4 mps 767 mmHg 37%
    17:00 +7°C° 0 mm 4 mps 767 mmHg 39%
    18:00 +8°C° 0 mm 3 mps 767 mmHg 40%
    19:00 +7°C° 0 mm 3 mps 767 mmHg 44%
    20:00 +5°C° 0 mm 3 mps 767 mmHg 47%
    21:00 +5°C° 0 mm 3 mps 767 mmHg 51%
    22:00 +4°C° 0 mm 3 mps 767 mmHg 54%
    23:00 +4°C° 0 mm 3 mps 767 mmHg 58%

    30 March, Saturday

    Time Temperature Precipitation Wind Pressure Humidity
    00:00 +3°C° 0 mm 3 mps 766 mmHg 62%
    01:00 +3°C° 0 mm 3 mps 766 mmHg 61%
    02:00 +3°C° 0 mm 4 mps 766 mmHg 61%
    03:00 +4°C° 0 mm 4 mps 766 mmHg 61%
    04:00 +3°C° 0 mm 3 mps 766 mmHg 63%
    05:00 +3°C° 0 mm 3 mps 766 mmHg 65%
    06:00 +3°C° 0 mm 3 mps 766 mmHg 67%
    07:00 +4°C° 0 mm 3 mps 766 mmHg 66%
    08:00 +5°C° 0 mm 3 mps 766 mmHg 64%
    09:00 +8°C° 0 mm 3 mps 766 mmHg 63%
    10:00 +9°C° 0 mm 3 mps 766 mmHg 59%
    11:00 +10°C° 0 mm 3 mps 766 mmHg 55%
    12:00 +12°C° 0 mm 3 mps 766 mmHg 51%
    13:00 +12°C° 0 mm 3 mps 766 mmHg 50%
    14:00 +13°C° 0 mm 3 mps 765 mmHg 50%
    15:00 +13°C° 0 mm 3 mps 765 mmHg 49%
    16:00 +13°C° 0 mm 3 mps 765 mmHg 51%
    17:00 +14°C° 0 mm 2 mps 765 mmHg 53%
    18:00 +13°C° 0 mm 2 mps 765 mmHg 55%
    19:00 +12°C° 0 mm 2 mps 765 mmHg 58%
    20:00 +10°C° 0 mm 2 mps 765 mmHg 62%
    21:00 +9°C° 0 mm 2 mps 765 mmHg 65%
    22:00 +9°C° 0 mm 2 mps 765 mmHg 66%
    23:00 +8°C° 0 mm 2 mps 765 mmHg 67%

    31 March, Sunday

    Time Temperature Precipitation Wind Pressure Humidity
    00:00 +8°C° 0 mm 2 mps 765 mmHg 69%
    01:00 +8°C° 0 mm 1 mps 765 mmHg 70%
    02:00 +8°C° 0 mm 1 mps 764 mmHg 70%
    03:00 +8°C° 0 mm 1 mps 764 mmHg 71%
    04:00 +8°C° 0 mm 1 mps 764 mmHg 72%
    05:00 +7°C° 0 mm 1 mps 763 mmHg 73%
    06:00 +7°C° 0 mm 1 mps 763 mmHg 74%
    07:00 +8°C° 0 mm 1 mps 763 mmHg 69%
    08:00 +10°C° 0 mm 1 mps 763 mmHg 64%
    09:00 +10°C° 0 mm 2 mps 763 mmHg 59%
    10:00 +13°C° 0 mm 2 mps 762 mmHg 53%
    11:00 +14°C° 0 mm 2 mps 762 mmHg 47%
    12:00 +16°C° 0 mm 3 mps 761 mmHg 42%
    13:00 +16°C° 0 mm 3 mps 761 mmHg 39%
    14:00 +17°C° 0 mm 3 mps 760 mmHg 37%
    15:00 +18°C° 0 mm 4 mps 759 mmHg 34%
    16:00 +17°C° 0 mm 3 mps 758 mmHg 37%
    17:00 +16°C° 0 mm 3 mps 758 mmHg 39%
    18:00 +16°C° 0 mm 3 mps 758 mmHg 41%
    19:00 +14°C° 0 mm 3 mps 758 mmHg 44%
    20:00 +12°C° 0 mm 3 mps 758 mmHg 48%
    21:00 +11°C° 0 mm 3 mps 758 mmHg 51%
    22:00 +10°C° 0 mm 3 mps 757 mmHg 54%
    23:00 +10°C° 0 mm 3 mps 757 mmHg 56%
    Show more